Regional Weather Roundup
Issued by NWS

Home | Current Version | Previous Version | Text Only | Print | Product List | Glossary On
Versions: 1 2 3 4 5 6 7 8 9 10 11 12 13 14 15 16 17 18 19 20 21 22 23 24 25 26 27 28 29 30 31 32 33 34 35 36 37 38 39 40 41 42 43 44 45 46 47 48 49 50
000
ASUS43 KMKX 121711
RWRWI

WISCONSIN REGIONAL WEATHER ROUNDUP
NATIONAL WEATHER SERVICE MILWAUKEE/SULLIVAN WI
1200 PM CDT SAT JUL 12 2014

NOTE: "FAIR" INDICATES FEW OR NO CLOUDS BELOW 12,000 FEET WITH NO
SIGNIFICANT WEATHER AND/OR OBSTRUCTIONS TO VISIBILITY.

WIZ001-002-006>008-014>016-023>028-121800-
NORTHWEST WISCONSIN

CITY           SKY/WX    TMP DP  RH WIND       PRES   REMARKS
SUPERIOR ARPT  CLOUDY    72  60  64 CALM      29.98F
ASHLAND        CLOUDY    74  60  61 NE5       29.99F
HAYWARD        CLOUDY    76  62  62 VRB3      29.99S
SIREN          CLOUDY    75  64  68 NE5       29.99F
RICE LAKE      CLOUDY    73  68  86 CALM      30.00F
LADYSMITH      CLOUDY    74  69  85 CALM      30.00F
EAU CLAIRE     CLOUDY    73  70  90 CALM      29.98S
MENOMONIE      DRIZZLE   73  69  89 CALM      29.98F
NEW RICHMOND   CLOUDY    74  71  91 CALM      29.99S FOG
OSCEOLA        CLOUDY    73  72  96 CALM      30.01S FOG
$$

WIZ003>005-009-010-017-018-121800-
NORTH CENTRAL WISCONSIN

CITY           SKY/WX    TMP DP  RH WIND       PRES   REMARKS
WOODRUFF       PTSUNNY   81  66  59 SW3       29.99F HX  83
RHINELANDER    CLOUDY    74  66  76 SW6       30.01F
EAGLE RIVER    PTSUNNY   76  61  59 W7        29.99F
LAND O LAKES   PTSUNNY   78  61  55 CALM      30.00S
PHILLIPS       CLOUDY    73  68  83 CALM      29.99F
TOMAHAWK       CLOUDY    74  66  76 CALM      30.00F
MEDFORD        CLOUDY    74  68  80 CALM      30.00S
MERRILL        CLOUDY    76  69  77 N3        29.99F
$$

WIZ029-030-035-036-043>047-121800-
CENTRAL WISCONSIN

CITY           SKY/WX    TMP DP  RH WIND       PRES   REMARKS
WAUSAU         CLOUDY    77  68  73 VRB3      29.97F
MOSINEE        PTSUNNY   73  70  88 NW5       30.00F
MARSHFIELD     CLOUDY    74  69  85 CALM      29.99F
STEVENS POINT  CLOUDY    73  66  80 CALM      30.00S
WAUPACA        CLOUDY    77  68  73 CALM      29.99S
WAUTOMA        CLOUDY    76  69  79 VRB5      29.98F
WISC RAPIDS    CLOUDY    76  67  73 CALM      30.00F
CAMP DOUGLAS   NOT AVBL
$$

WIZ011>013-019>022-031-037>040-048>050-121800-
NORTHEAST WISCONSIN

CITY           SKY/WX    TMP DP  RH WIND       PRES   REMARKS
ANTIGO         CLOUDY    74  67  79 CALM      30.01F
STURGEON BAY   CLOUDY    75  66  73 S5        29.99F
GREEN BAY      CLOUDY    78  68  71 S3        29.98S HX  80
MANITOWOC      CLOUDY    69  63  81 S7        30.00S
APPLETON       CLOUDY    77  66  69 VRB5      29.99S
CLINTONVILLE   CLOUDY    73  64  73 SE3       29.98F
OSHKOSH        CLOUDY    76  68  76 E5        29.98F
$$

WIZ032>034-041-042-053>061-121800-
SOUTHWEST WISCONSIN

CITY           SKY/WX    TMP DP  RH WIND       PRES   REMARKS
LA CROSSE      CLOUDY    76  70  82 NW6       29.96F
SPARTA         CLOUDY    75  67  77 CALM      29.99S
VIROQUA        FAIR      73  71  94 CALM      30.00F
BOSCOBEL       CLOUDY    78  69  73 CALM      29.99S HX  80
PRAIRIE DU CHI CLOUDY    77  68  73 CALM      29.98S
PLATTEVILLE    FAIR      78  71  80 SE3       30.02S HX  80
$$

WIZ056-057-062-063-064-067-068-121800-
SOUTH CENTRAL WISCONSIN

CITY           SKY/WX    TMP DP  RH WIND       PRES   REMARKS
BARABOO/DELLS  CLOUDY    74  66  75 CALM      30.00R
LONE ROCK      CLOUDY    78  70  76 CALM      30.00R HX  80
WATERTOWN      CLOUDY    74  68  83 S7        29.96F
MADISON        CLOUDY    76  68  76 CALM      30.01R
MIDDLETON      PTSUNNY   76  68  74 CALM      30.02R
MONROE         CLOUDY    75  68  78 S3        30.03R
JANESVILLE     MOSUNNY   75  68  78 NE7       30.01R
$$

WIZ051-052-058>065-066-070>072-121800-
SOUTHEAST WISCONSIN

CITY           SKY/WX    TMP DP  RH WIND       PRES   REMARKS
MILWAUKEE      CLOUDY    75  68  78 S5        30.01R
WAUKESHA       PTSUNNY   73  66  78 CALM      30.02R
MILWAUKEE/TIMM SUNNY     75  64  69 CALM      30.01S
RACINE         CLOUDY    74  68  81 S9        30.03R
BURLINGTON     DRIZZLE   73  69  88 S7        30.01R
KENOSHA        LGT RAIN  74  70  87 S10       30.02R
FOND DU LAC    CLOUDY    76  65  68 CALM      29.98F
SHEBOYGAN      CLOUDY    73  65  75 SE5       29.99F
WEST BEND      CLOUDY    77  63  61 E3        29.99F
JUNEAU         CLOUDY    73  51  45 NE9       29.96F
$$

LSZ147-162-121800-
LAKE SUPERIOR

STATION/POSITION TIME  TEMP    WIND        PRES    WAVE
                       AIR SEA DIR/SP/G            HT/PER
                 (UTC) (F)     (DEG/KT/KT) (MB)    (FT/S)
W MID LAKE BUOY  1650   46 39  280/  6/  6 1015.0F   0
PORT WING        1600   62     290/  4/  5 1015.6
SAXON HARBOR     1600             CALM     1015.6
$$

LMZ867-665-643>646-121800-
LAKE MICHIGAN

STATION/POSITION TIME  TEMP    WIND        PRES    WAVE
                       AIR SEA DIR/SP/G            HT/PER
                 (UTC) (F)     (DEG/KT/KT) (MB)    (FT/S)
N MID LAKE BUOY  1650   57 56  200/ 12/ 12 1014.8F   2/ 4
NORTHPORT PIER   1600   65     140/  5/  7 1015.2F
KEWAUNEE LAKESHO 1600   54     160/  8/  9 1016.4F
SHEBOYGAN LAKESH 1700   63     150/ 12/ 12 1015.8F
PORT WASHINGTON  1640   65      50/  2/  3 1016.3F
MILWAUKEE LAKESH 1600   63      80/  1/  3   N/A
S MID LAKE BUOY  1650   64 63  140/ 12/ 14 1016.8F   1/ 3
KENOSHA   LAKESH 1700          210/  8/ 11   N/A
$$

TC  - TEMPERATURE IN CELSIUS
VSB - VISIBILITY IN STATUTE MILES
WCI - WIND CHILL INDEX
HX  - HEAT INDEX




USA.gov is the U.S. government's official web portal to all federal, state and local government web resources and services.